• în România
  • Lista ţărilor
  • Pe 7 zile
  • Temperatura apei
  • Hartă satelitară
  • Meteo pe hartă
  • Widget-uri
  • user-avatar
    Intrare

    Meteo pe oră la Novolipovka

    Astăzi, 15 August, Miercuri

    Timp Temperatura Precipitaţii Vânt Presiune Umiditate
    00:00 +19°C° 0 mm 2 m/s 756 mmHg 64%
    01:00 +19°C° 0 mm 2 m/s 756 mmHg 66%
    02:00 +18°C° 0 mm 2 m/s 757 mmHg 68%
    03:00 +19°C° 0 mm 1 m/s 757 mmHg 69%
    04:00 +19°C° 0 mm 1 m/s 757 mmHg 69%
    05:00 +19°C° 0 mm 1 m/s 757 mmHg 69%
    06:00 +19°C° 0 mm 1 m/s 758 mmHg 69%
    07:00 +21°C° 0 mm 1 m/s 758 mmHg 62%
    08:00 +23°C° 0 mm 1 m/s 758 mmHg 55%
    09:00 +25°C° 0 mm 1 m/s 758 mmHg 48%
    10:00 +26°C° 0 mm 1 m/s 758 mmHg 43%
    11:00 +27°C° 0 mm 1 m/s 758 mmHg 39%
    12:00 +28°C° 0 mm 1 m/s 758 mmHg 34%
    13:00 +28°C° 0 mm 1 m/s 758 mmHg 33%
    14:00 +29°C° 0 mm 1 m/s 758 mmHg 31%
    15:00 +29°C° 0 mm 1 m/s 758 mmHg 29%
    16:00 +29°C° 0 mm 1 m/s 758 mmHg 31%
    17:00 +29°C° 0 mm 1 m/s 758 mmHg 33%
    18:00 +28°C° 0 mm 1 m/s 757 mmHg 35%
    19:00 +27°C° 0 mm 1 m/s 758 mmHg 37%
    20:00 +25°C° 0 mm 1 m/s 758 mmHg 38%
    21:00 +24°C° 0 mm 1 m/s 758 mmHg 40%
    22:00 +23°C° 0 mm 1 m/s 758 mmHg 41%
    23:00 +23°C° 0 mm 2 m/s 758 mmHg 42%

    Mâine, 16 August, Joi

    Timp Temperatura Precipitaţii Vânt Presiune Umiditate
    00:00 +21°C° 0 mm 2 m/s 758 mmHg 42%
    01:00 +21°C° 0 mm 2 m/s 758 mmHg 43%
    02:00 +21°C° 0 mm 2 m/s 758 mmHg 43%
    03:00 +20°C° 0 mm 2 m/s 757 mmHg 44%
    04:00 +21°C° 0 mm 2 m/s 758 mmHg 44%
    05:00 +21°C° 0 mm 2 m/s 758 mmHg 45%
    06:00 +21°C° 0 mm 2 m/s 758 mmHg 46%
    07:00 +24°C° 0 mm 2 m/s 758 mmHg 41%
    08:00 +26°C° 0 mm 3 m/s 758 mmHg 37%
    09:00 +29°C° 0 mm 3 m/s 758 mmHg 32%
    10:00 +30°C° 0 mm 3 m/s 757 mmHg 32%
    11:00 +31°C° 0 mm 3 m/s 757 mmHg 31%
    12:00 +33°C° 0 mm 3 m/s 757 mmHg 30%
    13:00 +33°C° 0 mm 3 m/s 757 mmHg 30%
    14:00 +33°C° 0 mm 3 m/s 757 mmHg 29%
    15:00 +34°C° 0 mm 3 m/s 756 mmHg 28%
    16:00 +32°C° 0 mm 2 m/s 756 mmHg 30%
    17:00 +32°C° 0 mm 2 m/s 756 mmHg 33%
    18:00 +31°C° 0 mm 2 m/s 756 mmHg 35%
    19:00 +30°C° 0 mm 1 m/s 756 mmHg 37%
    20:00 +28°C° 0 mm 1 m/s 756 mmHg 39%
    21:00 +27°C° 0 mm 1 m/s 756 mmHg 41%
    22:00 +26°C° 0 mm 1 m/s 756 mmHg 41%
    23:00 +26°C° 0 mm 1 m/s 756 mmHg 42%

    Poimâine, 17 August, Vineri

    Timp Temperatura Precipitaţii Vânt Presiune Umiditate
    00:00 +25°C° 0 mm 1 m/s 756 mmHg 43%
    01:00 +25°C° 0 mm 1 m/s 755 mmHg 44%
    02:00 +24°C° 0 mm 1 m/s 755 mmHg 45%
    03:00 +24°C° 0 mm 1 m/s 755 mmHg 46%
    04:00 +24°C° 0 mm 1 m/s 755 mmHg 47%
    05:00 +24°C° 0 mm 1 m/s 755 mmHg 48%
    06:00 +24°C° 0 mm 1 m/s 755 mmHg 49%
    07:00 +26°C° 0 mm 1 m/s 756 mmHg 46%
    08:00 +27°C° 0 mm 1 m/s 756 mmHg 43%
    09:00 +29°C° 0 mm 1 m/s 756 mmHg 39%
    10:00 +30°C° 0 mm 2 m/s 756 mmHg 37%
    11:00 +31°C° 0 mm 2 m/s 756 mmHg 35%
    12:00 +31°C° 0 mm 2 m/s 756 mmHg 34%
    13:00 +31°C° 0 mm 3 m/s 755 mmHg 35%
    14:00 +31°C° 0 mm 3 m/s 755 mmHg 36%
    15:00 +31°C° 0 mm 3 m/s 755 mmHg 37%
    16:00 +29°C° 0,2 mm 4 m/s 755 mmHg 46%
    17:00 +28°C° 0,2 mm 5 m/s 755 mmHg 55%
    18:00 +26°C° 0,2 mm 5 m/s 755 mmHg 63%
    19:00 +23°C° 0,3 mm 5 m/s 755 mmHg 68%
    20:00 +22°C° 0,3 mm 5 m/s 756 mmHg 72%
    21:00 +21°C° 0,3 mm 4 m/s 756 mmHg 77%
    22:00 +20°C° 0 mm 4 m/s 756 mmHg 76%
    23:00 +20°C° 0 mm 4 m/s 756 mmHg 76%

    18 August, Sâmbătă

    Timp Temperatura Precipitaţii Vânt Presiune Umiditate
    00:00 +19°C° 0 mm 4 m/s 756 mmHg 76%
    01:00 +19°C° 0 mm 4 m/s 756 mmHg 76%
    02:00 +18°C° 0 mm 4 m/s 756 mmHg 77%
    03:00 +18°C° 0 mm 4 m/s 757 mmHg 77%
    04:00 +17°C° 0 mm 5 m/s 757 mmHg 77%
    05:00 +16°C° 0 mm 5 m/s 757 mmHg 78%
    06:00 +16°C° 0 mm 5 m/s 757 mmHg 78%
    07:00 +19°C° 0 mm 5 m/s 757 mmHg 71%
    08:00 +20°C° 0 mm 6 m/s 757 mmHg 63%
    09:00 +22°C° 0 mm 6 m/s 758 mmHg 56%
    10:00 +23°C° 0 mm 6 m/s 758 mmHg 51%
    11:00 +24°C° 0 mm 6 m/s 758 mmHg 46%
    12:00 +26°C° 0 mm 6 m/s 757 mmHg 41%
    13:00 +26°C° 0 mm 6 m/s 757 mmHg 39%
    14:00 +26°C° 0 mm 6 m/s 757 mmHg 38%
    15:00 +26°C° 0 mm 6 m/s 757 mmHg 36%
    16:00 +24°C° 0 mm 6 m/s 757 mmHg 39%
    17:00 +24°C° 0 mm 6 m/s 757 mmHg 42%
    18:00 +23°C° 0 mm 5 m/s 757 mmHg 45%
    19:00 +21°C° 0 mm 5 m/s 758 mmHg 48%
    20:00 +20°C° 0 mm 5 m/s 758 mmHg 52%
    21:00 +19°C° 0 mm 5 m/s 759 mmHg 56%
    22:00 +17°C° 0 mm 5 m/s 759 mmHg 59%
    23:00 +16°C° 0 mm 5 m/s 759 mmHg 61%

    19 August, Duminică

    Timp Temperatura Precipitaţii Vânt Presiune Umiditate
    00:00 +17°C° 0 mm 4 m/s 759 mmHg 64%
    01:00 +15°C° 0 mm 4 m/s 759 mmHg 66%
    02:00 +14°C° 0 mm 4 m/s 759 mmHg 68%
    03:00 +14°C° 0 mm 4 m/s 759 mmHg 71%
    04:00 +14°C° 0 mm 4 m/s 760 mmHg 71%
    05:00 +13°C° 0 mm 4 m/s 760 mmHg 72%
    06:00 +13°C° 0 mm 4 m/s 760 mmHg 72%
    07:00 +15°C° 0 mm 5 m/s 760 mmHg 65%
    08:00 +16°C° 0 mm 5 m/s 760 mmHg 59%
    09:00 +19°C° 0 mm 6 m/s 760 mmHg 52%
    10:00 +20°C° 0 mm 6 m/s 760 mmHg 47%
    11:00 +21°C° 0 mm 6 m/s 760 mmHg 43%
    12:00 +22°C° 0 mm 6 m/s 759 mmHg 39%
    13:00 +22°C° 0 mm 6 m/s 759 mmHg 38%
    14:00 +22°C° 0 mm 6 m/s 759 mmHg 37%
    15:00 +23°C° 0 mm 6 m/s 759 mmHg 36%
    16:00 +22°C° 0 mm 5 m/s 759 mmHg 39%
    17:00 +21°C° 0 mm 5 m/s 759 mmHg 42%
    18:00 +21°C° 0 mm 4 m/s 759 mmHg 44%
    19:00 +19°C° 0 mm 4 m/s 759 mmHg 49%
    20:00 +18°C° 0 mm 4 m/s 759 mmHg 54%
    21:00 +17°C° 0 mm 3 m/s 759 mmHg 59%
    22:00 +16°C° 0 mm 3 m/s 759 mmHg 62%
    23:00 +16°C° 0 mm 3 m/s 759 mmHg 64%

    20 August, Luni

    Timp Temperatura Precipitaţii Vânt Presiune Umiditate
    00:00 +14°C° 0 mm 3 m/s 759 mmHg 67%
    01:00 +14°C° 0 mm 3 m/s 759 mmHg 70%
    02:00 +13°C° 0 mm 3 m/s 759 mmHg 72%
    03:00 +13°C° 0 mm 3 m/s 759 mmHg 75%
    04:00 +13°C° 0 mm 3 m/s 759 mmHg 75%
    05:00 +13°C° 0 mm 3 m/s 759 mmHg 75%
    06:00 +14°C° 0 mm 2 m/s 759 mmHg 75%
    07:00 +16°C° 0 mm 2 m/s 760 mmHg 68%
    08:00 +18°C° 0 mm 2 m/s 760 mmHg 60%
    09:00 +20°C° 0 mm 3 m/s 760 mmHg 53%
    10:00 +21°C° 0 mm 2 m/s 759 mmHg 48%
    11:00 +23°C° 0 mm 2 m/s 759 mmHg 42%
    12:00 +24°C° 0 mm 2 m/s 759 mmHg 37%
    13:00 +25°C° 0 mm 2 m/s 759 mmHg 35%
    14:00 +25°C° 0 mm 2 m/s 759 mmHg 33%
    15:00 +26°C° 0 mm 1 m/s 758 mmHg 31%
    16:00 +25°C° 0 mm 1 m/s 758 mmHg 33%
    17:00 +25°C° 0 mm 1 m/s 758 mmHg 35%
    18:00 +25°C° 0 mm 1 m/s 758 mmHg 38%
    19:00 +23°C° 0 mm 1 m/s 758 mmHg 40%
    20:00 +21°C° 0 mm 1 m/s 758 mmHg 43%
    21:00 +20°C° 0 mm 1 m/s 758 mmHg 45%
    22:00 +19°C° 0 mm 1 m/s 758 mmHg 47%
    23:00 +19°C° 0 mm 1 m/s 758 mmHg 48%
    Arată mai mult